Duncan, OK

12:10 PM CDT on March 30, 2017 (GMT -0500)
Halliburton

Weather History for KDUC - September, 2012

Change the Weather History Date:

Saturday, September 8, 2012

  Actual Average (KLAW) Record (KLAW)
Temperature  
Mean Temperature 72 °F -  
Max Temperature 82 °F 91 °F 104 °F (1998)
Min Temperature 60 °F 66 °F 51 °F (1950)
Cooling Degree Days 7    
Growing Degree Days 22 (Base 50)    
Moisture  
Dew Point 50 °F    
Average Humidity 51    
Maximum Humidity 94    
Minimum Humidity 23    
Precipitation  
Precipitation 0.00 in - - ()
Sea Level Pressure  
Sea Level Pressure 30.14 in    
Wind  
Wind Speed 10 mph (NNE)    
Max Wind Speed 17 mph    
Max Gust Speed 25 mph    
Visibility 10 miles    
Events      
Averages and records for this station are not official NWS values.
T = Trace of Precipitation, MM = Missing Value Source: NWS Daily Summary

Daily Weather History Graph

Daily Weather History Graph

Search for Another Location

Airport or City:

Trip Planner

Search our weather history database for the weather conditions in past years. The results will help you decide how hot, cold, wet, or windy it might be!

Date:

Astronomy

Sep. 08, 2012 Rise Set
Actual Time 7:10 AM CDT 7:47 PM CDT
Civil Twilight 6:44 AM CDT 8:13 PM CDT
Nautical Twilight 6:15 AM CDT 8:42 PM CDT
Astronomical Twilight 5:44 AM CDT 9:13 PM CDT
Moon 12:04 AM CDT (9/8) 2:34 PM CDT (9/8)
Length of Visible Light 13h 28m
Length of Day
12h 37m
Waning Gibbous, 48% of the Moon is Illuminated
Sep 8
Waning Gibbous
Sep 15
New
Sep 22
First Quarter
Sep 29
Full
Oct 8
Last Quarter

Hourly Weather History & Observations

Time (CDT) Temp. Dew Point Humidity Pressure Visibility Wind Dir Wind Speed Gust Speed Precip Events Conditions
12:15 AM 64.4 °F 62.6 °F 94% 30.11 in 10.0 mi North 6.9 mph - N/A   Scattered Clouds
12:35 AM 64.4 °F 62.6 °F 94% 30.11 in 10.0 mi North 5.8 mph - N/A   Clear
12:55 AM 64.4 °F 62.6 °F 94% 30.12 in 10.0 mi North 8.1 mph - N/A   Clear
1:15 AM 64.4 °F 62.6 °F 94% 30.11 in 10.0 mi NNE 10.4 mph - N/A   Clear
1:35 AM 64.4 °F 60.8 °F 88% 30.11 in 10.0 mi NNE 10.4 mph - N/A   Clear
1:55 AM 64.4 °F 59.0 °F 83% 30.11 in 10.0 mi NNE 12.7 mph 19.6 mph N/A   Clear
2:15 AM 64.4 °F 57.2 °F 77% 30.12 in 10.0 mi NNE 11.5 mph 16.1 mph N/A   Clear
2:35 AM 64.4 °F 55.4 °F 73% 30.12 in 10.0 mi NNE 13.8 mph 20.7 mph N/A   Clear
2:55 AM 64.4 °F 55.4 °F 73% 30.12 in 10.0 mi NNE 13.8 mph 17.3 mph N/A   Scattered Clouds
3:15 AM 64.4 °F 53.6 °F 68% 30.12 in 10.0 mi NNE 12.7 mph - N/A   Clear
3:35 AM 64.4 °F 53.6 °F 68% 30.12 in 10.0 mi NNE 11.5 mph - N/A   Clear
3:55 AM 64.4 °F 53.6 °F 68% 30.12 in 10.0 mi NNE 11.5 mph - N/A   Clear
4:15 AM 64.4 °F 53.6 °F 68% 30.12 in 10.0 mi NNE 8.1 mph - N/A   Clear
4:35 AM 62.6 °F 53.6 °F 72% 30.12 in 10.0 mi North 13.8 mph - N/A   Clear
4:55 AM 62.6 °F 53.6 °F 72% 30.11 in 10.0 mi NNE 11.5 mph - N/A   Clear
5:15 AM 62.6 °F 53.6 °F 72% 30.13 in 10.0 mi North 10.4 mph 16.1 mph N/A   Clear
5:35 AM 62.6 °F 53.6 °F 72% 30.14 in 10.0 mi North 8.1 mph - N/A   Clear
5:55 AM 62.6 °F 53.6 °F 72% 30.15 in 10.0 mi NNE 9.2 mph - N/A   Clear
6:15 AM 62.6 °F 53.6 °F 72% 30.15 in 10.0 mi NNE 11.5 mph 16.1 mph N/A   Clear
6:35 AM 62.6 °F 53.6 °F 72% 30.16 in 10.0 mi NNE 11.5 mph 16.1 mph N/A   Clear
6:55 AM 62.6 °F 53.6 °F 72% 30.17 in 10.0 mi NNE 10.4 mph - N/A   Clear
7:15 AM 62.6 °F 53.6 °F 72% 30.18 in 10.0 mi North 10.4 mph - N/A   Clear
7:35 AM 62.6 °F 53.6 °F 72% 30.19 in 10.0 mi NNE 9.2 mph - N/A   Clear
7:55 AM 62.6 °F 53.6 °F 72% 30.19 in 10.0 mi North 10.4 mph - N/A   Clear
8:15 AM 64.4 °F 53.6 °F 68% 30.20 in 10.0 mi North 8.1 mph - N/A   Clear
8:35 AM 64.4 °F 53.6 °F 68% 30.21 in 10.0 mi North 9.2 mph - N/A   Clear
8:55 AM 66.2 °F 53.6 °F 64% 30.21 in 10.0 mi North 8.1 mph - N/A   Clear
9:35 AM 68.0 °F 53.6 °F 60% 30.21 in 10.0 mi NNE 9.2 mph - N/A   Clear
9:55 AM 69.8 °F 53.6 °F 56% 30.21 in 10.0 mi NE 11.5 mph - N/A   Clear
10:15 AM 71.6 °F 53.6 °F 53% 30.21 in 10.0 mi NNE 10.4 mph - N/A   Clear
10:35 AM 71.6 °F 51.8 °F 50% 30.21 in 10.0 mi NNE 10.4 mph - N/A   Clear
10:55 AM 73.4 °F 50.0 °F 44% 30.21 in 10.0 mi NE 11.5 mph 16.1 mph N/A   Clear
11:15 AM 73.4 °F 48.2 °F 41% 30.21 in 10.0 mi NE 13.8 mph 19.6 mph N/A   Clear
11:35 AM 75.2 °F 46.4 °F 36% 30.21 in 10.0 mi NNE 11.5 mph 17.3 mph N/A   Clear
11:55 AM 77.0 °F 46.4 °F 34% 30.20 in 10.0 mi NNE 15.0 mph - N/A   Clear
12:15 PM 77.0 °F 46.4 °F 34% 30.20 in 10.0 mi North 16.1 mph 20.7 mph N/A   Clear
12:35 PM 78.8 °F 48.2 °F 34% 30.19 in 10.0 mi North 11.5 mph 17.3 mph N/A   Clear
12:55 PM 78.8 °F 46.4 °F 32% 30.19 in 10.0 mi North 10.4 mph 17.3 mph N/A   Clear
1:15 PM 80.6 °F 46.4 °F 30% 30.18 in 10.0 mi North 13.8 mph 18.4 mph N/A   Clear
1:35 PM 80.6 °F 44.6 °F 28% 30.17 in 10.0 mi NNE 10.4 mph 21.9 mph N/A   Clear
1:55 PM 80.6 °F 46.4 °F 30% 30.16 in 10.0 mi NNE 11.5 mph 25.3 mph N/A   Clear
2:15 PM 80.6 °F 44.6 °F 28% 30.15 in 10.0 mi NNE 13.8 mph 20.7 mph N/A   Clear
2:35 PM 82.4 °F 44.6 °F 26% 30.15 in 10.0 mi NNE 11.5 mph 20.7 mph N/A   Clear
2:55 PM 82.4 °F 44.6 °F 26% 30.13 in 10.0 mi North 12.7 mph 18.4 mph N/A   Clear
3:15 PM 82.4 °F 44.6 °F 26% 30.13 in 10.0 mi North 12.7 mph 19.6 mph N/A   Clear
3:35 PM 82.4 °F 42.8 °F 25% 30.12 in 10.0 mi North 11.5 mph 23.0 mph N/A   Clear
3:55 PM 82.4 °F 42.8 °F 25% 30.12 in 10.0 mi North 13.8 mph 20.7 mph N/A   Clear
4:15 PM 82.4 °F 44.6 °F 26% 30.10 in 10.0 mi NNE 17.3 mph 21.9 mph N/A   Clear
4:35 PM 82.4 °F 42.8 °F 25% 30.10 in 10.0 mi North 13.8 mph 19.6 mph N/A   Clear
4:55 PM 82.4 °F 42.8 °F 25% 30.10 in 10.0 mi North 13.8 mph 19.6 mph N/A   Clear
5:15 PM 82.4 °F 42.8 °F 25% 30.09 in 10.0 mi NNE 10.4 mph 17.3 mph N/A   Clear
5:35 PM 82.4 °F 44.6 °F 26% 30.09 in 10.0 mi North 12.7 mph - N/A   Clear
5:55 PM 82.4 °F 42.8 °F 25% 30.09 in 10.0 mi NNE 6.9 mph 16.1 mph N/A   Clear
6:15 PM 82.4 °F 41.0 °F 23% 30.09 in 10.0 mi North 10.4 mph - N/A   Clear
6:35 PM 80.6 °F 42.8 °F 26% 30.09 in 10.0 mi NE 9.2 mph - N/A   Clear
6:55 PM 80.6 °F 42.8 °F 26% 30.10 in 10.0 mi North 8.1 mph - N/A   Clear
7:15 PM 80.6 °F 42.8 °F 26% 30.10 in 10.0 mi NNE 9.2 mph - N/A   Clear
7:35 PM 78.8 °F 42.8 °F 28% 30.10 in 10.0 mi NNE 8.1 mph - N/A   Clear
7:55 PM 75.2 °F 42.8 °F 31% 30.10 in 10.0 mi NNE 5.8 mph - N/A   Clear
8:15 PM 73.4 °F 44.6 °F 36% 30.10 in 10.0 mi NNE 4.6 mph - N/A   Clear
8:35 PM 73.4 °F 44.6 °F 36% 30.11 in 10.0 mi NNE 4.6 mph - N/A   Clear
8:55 PM 71.6 °F 44.6 °F 38% 30.12 in 10.0 mi NE 4.6 mph - N/A   Clear
9:15 PM 71.6 °F 46.4 °F 41% 30.12 in 10.0 mi NNE 4.6 mph - N/A   Clear
9:35 PM 69.8 °F 46.4 °F 43% 30.12 in 10.0 mi NNE 4.6 mph - N/A   Clear
9:55 PM 69.8 °F 46.4 °F 43% 30.12 in 10.0 mi NE 4.6 mph - N/A   Clear
10:15 PM 69.8 °F 46.4 °F 43% 30.13 in 10.0 mi NE 4.6 mph - N/A   Clear
10:35 PM 64.4 °F 50.0 °F 59% 30.13 in 10.0 mi Calm Calm - N/A   Clear
10:55 PM 64.4 °F 51.8 °F 64% 30.13 in 10.0 mi Calm Calm - N/A   Clear
11:55 PM 60.8 °F 51.8 °F 72% 30.13 in 10.0 mi Calm Calm - N/A   Clear